Flag for United Arab Emirates Weather past 2 weeks in Ras al-Khaimah, Ras al-Khaimah, United Arab Emirates

Now
93 °F

Clear.


Feels Like: 96 °F
Forecast: 85 / 106 °F
Wind: No wind

Location: Ras Al Khaimah International Airport

Current Time: Jul 6, 2015 at 10:32:47 PM

Latest Report: Jul 6, 2015 at 10:00 PM


Visibility: 10 mi

Pressure: 29.45 "Hg

Humidity: 41%

Dew point: 66 °F

Location of Ras al-KhaimahLocation

Historic Weather in Ras al-Khaimah — Graph

°F

Ras al-Khaimah temperature yesterday

Maximum temperature yesterday: 109 °F (at 11:00 AM)
Minimum temperature yesterday: 84 °F (at 6:00 AM)
Average temperature yesterday: 99 °F

Past Weeks' High & Low Weather Summary

 TemperatureHumidityPressure
High113 °F (Jun 22, 1:00 PM)84% (Jul 1, 4:00 AM)29.65 "Hg (Jul 1, 4:00 AM)
Low79 °F (Jun 29, 5:00 AM)8% (Jul 1, 10:00 AM)29.36 "Hg (Jun 22, 3:00 PM)
Average95 °F40%29.51 "Hg
* Reported Jun 21 9:00 PM — Jul 6 9:00 PM, Ras al-Khaimah, Weather by CustomWeather, © 2015

Note: Actual official high and low records may vary slightly from our data, if they occured in-between our weather recording intervals... More about our weather records

Advertising

Ras al-Khaimah weather history for previous 24 hours

 ConditionsComfort  
Time TempWeatherWind HumidityBarometerVisibility
9:00 PM
Mon, Jul 6
95 °FClear.3 mph41%29.42 "Hg10 mi
8:00 PMN/AClear.6 mphN/A29.42 "Hg10 mi
7:00 PM100 °FSunny.7 mph25%29.39 "Hg10 mi
6:00 PM104 °FClear.7 mph28%29.39 "Hg5 mi
5:00 PM108 °FClear.6 mph23%29.39 "Hg5 mi
4:00 PM106 °FClear.7 mph25%29.42 "Hg5 mi
3:00 PM106 °FClear.9 mph23%29.45 "Hg5 mi
2:00 PM104 °FClear.10 mph33%29.45 "Hg5 mi
1:00 PM102 °FClear.10 mph40%29.47 "Hg5 mi
12:00 PM102 °FClear.13 mph37%29.47 "Hg5 mi
11:00 AM106 °FExtremely hot.9 mph19%29.50 "HgN/A
10:00 AM106 °FSunny.12 mph15%29.50 "Hg10 mi
9:00 AM100 °FSunny.13 mph25%29.50 "Hg10 mi
8:00 AM95 °FSunny.8 mph23%29.53 "Hg10 mi
7:00 AM88 °FSunny.8 mph24%29.50 "Hg10 mi
6:00 AM84 °FSunny.8 mph27%29.50 "Hg10 mi
5:00 AM82 °FClear.7 mph35%29.47 "Hg10 mi
4:00 AM81 °FClear.2 mph42%29.47 "Hg10 mi
3:00 AM82 °FClear.3 mph40%29.47 "Hg10 mi
2:00 AM84 °FClear.2 mph40%29.47 "Hg10 mi
1:00 AM86 °FClear.2 mph33%29.47 "Hg10 mi
12:00 AM88 °FClear.2 mph35%29.50 "Hg10 mi
11:00 PM
Sun, Jul 5
90 °FClear.3 mph33%29.50 "Hg10 mi
10:00 PM93 °FClear.2 mph28%29.50 "Hg10 mi
Weather by CustomWeather, © 2015

See weather overviewHow to use our weather pages